CZ-6A DEB

Satellite information

Favourite Embed

Satellite Type and Status

DEBRISIN ORBIT

Key statistics

Satellite CZ-6A DEB at a glance.

Uptime

1129

Days in orbit

Revolutions

≈ 14.1

Per day

Orbit

SSO

Sun Synchronous Orbit

Inclination

98.8

Latest

Satellite identification and parameters

Extended collection of information and parameters for CZ-6A DEB.

Object identification

Identified? True

Debris? True

Object name: CZ-6A DEB

International designator: 2022-151AHJ

Object number (NORAD): 56682

Object ID (CCSDS): 56682

Country: PEOPLES REPUBLIC OF CHINA (PRC)

Current information (Y/N): Y

RCS size: SMALL

Orbital parameters

Period: 101.961 minutes

Inclination: 98.8202 deg

SMA: 7229.651 km

Apoapsis: 883.782 km

Periapsis: 819.251 km

RAAN: 345.0295 deg

Eccentricy: 0.00446296

Argument of periapsis: 124.7479 deg

Mean anomaly: 235.7908 deg

Mean motion: 14.12299286 rev/day

Mean motion (dot): 0.00001388 rev/day2

B* drag term: 0.00077040646 1/REarth

Two-line elements (TLE)

Creation date: Dec. 14, 2025, 3:07 a.m.

Reference frame: TEME

Reference center: EARTH

Epoch: Dec. 13, 2025, 12:54 p.m. UTC

TLE line 0: 0 CZ-6A DEB

TLE line 1: 1 56682U 22151AHJ 25347.53773236 .00001388 00000-0 77041-3 0 9997

TLE line 2: 2 56682 98.8202 345.0295 0044630 124.7479 235.7908 14.12299286133912

Live tracking on map

Real-time ground track for satellite CZ-6A DEB.

In-orbit conjunctions

A list of the most updated potential collisions computed for object CZ-6A DEB.

Target Orbit TCA Probability of collision Miss distance Type
DELTA 1 DEB SSO 2024-11-11 06:11:44 0.0001015658 659.0 (m) DEBRIS
CZ-6A DEB SSO 2024-08-07 14:30:54 0.0001507312 751.0 (m) DEBRIS

Associated space launch

Chinese satellite reported for atmospheric/ocean/environmental/spatial parameter research purposes, details TBD.

CZ-6A DEB was lifted into orbit during the mission ‘Long March 6A | Yunhai 3’, on board a Long March 6A space rocket.

The launch took place on Nov. 11, 2022, 10:52 p.m. from Launch Complex 9A.

For more information about the launch, click the button.

Launch to space Long March 6A | Yunhai 3
Long March 6A | Yunhai 3

Agency: N/A

Status: Launch Successful

Launch date: Nov. 11, 2022, 10:52 p.m. UTC

Rocket: Long March 6A

Launch pad: Launch Complex 9A

Location: Taiyuan Satellite Launch Center, People's Republic of China

...

Latest news about this satellite

There are no fresh news available about this satellite. Check back as we update our databases every day.


Newsletter sign-up

Weekly statistics, charts and insights to help you stay on top of the space industry.